User: anonymous   Login
Location: Cheyres
(46.8153°N, 6.7877°E)
Time: 23:46:24
(UTC+00:00)
Language:

S-56A Canister/Altair - Orbit

View from above orbital plane
View from above orbital plane
View from above satellite
View from above satellite

Ground track
Ground track

The orbit data is extracted from the following two-line orbital elements,

1 00082U 61004B   22146.17077675  .00000012  00000-0  34919-4 0  9999
2 00082  38.8628  97.8914 1173482 259.0047  87.6709 12.26015539894673
Epoch (UTC): 26 May 2022 04:05:55
Eccentricity: 0.1173482
inclination: 38.8628°
perigee height: 634 km
apogee height: 2499 km
right ascension of ascending node: 97.8914°
argument of perigee: 259.0047°
revolutions per day: 12.26015539
mean anomaly at epoch: 87.6709°
orbit number at epoch: 89467

The dashed part of the orbit path shows where the satellite is in the earth's shadow,  

DLR